TimeEDT,TemperatureF,Dew PointF,Humidity,Sea Level PressureIn,VisibilityMPH,Wind Direction,Wind SpeedMPH,Gust SpeedMPH,PrecipitationIn,Events,Conditions,WindDirDegrees,DateUTC
12:53 AM,59.0,57.0,93,30.18,10.0,Calm,Calm,-,N/A,,Clear,0,2012-10-04 04:53:00
1:53 AM,59.0,55.9,90,30.19,10.0,Calm,Calm,-,N/A,,Partly Cloudy,0,2012-10-04 05:53:00
2:53 AM,57.9,55.9,93,30.19,10.0,Calm,Calm,-,N/A,,Clear,0,2012-10-04 06:53:00
3:53 AM,57.9,55.9,93,30.19,10.0,Calm,Calm,-,N/A,,Clear,0,2012-10-04 07:53:00
4:53 AM,57.9,55.0,90,30.20,10.0,Calm,Calm,-,N/A,,Partly Cloudy,0,2012-10-04 08:53:00
5:53 AM,57.0,54.0,89,30.21,10.0,Calm,Calm,-,N/A,,Clear,0,2012-10-04 09:53:00
6:53 AM,57.0,54.0,89,30.23,10.0,Calm,Calm,-,N/A,,Clear,0,2012-10-04 10:53:00
7:53 AM,57.0,54.0,89,30.25,10.0,Calm,Calm,-,N/A,,Clear,0,2012-10-04 11:53:00
8:53 AM,59.0,55.0,87,30.27,10.0,Calm,Calm,-,N/A,,Clear,0,2012-10-04 12:53:00
9:53 AM,62.1,57.0,84,30.27,10.0,Calm,Calm,-,N/A,,Clear,0,2012-10-04 13:53:00
10:53 AM,66.0,57.0,73,30.27,10.0,Calm,Calm,-,N/A,,Clear,0,2012-10-04 14:53:00
11:53 AM,70.0,57.0,63,30.27,10.0,Variable,5.8,-,N/A,,Clear,0,2012-10-04 15:53:00
12:53 PM,73.0,55.9,55,30.27,10.0,Calm,Calm,-,N/A,,Scattered Clouds,0,2012-10-04 16:53:00
1:53 PM,73.0,55.9,55,30.25,10.0,Variable,3.5,-,N/A,,Partly Cloudy,0,2012-10-04 17:53:00
2:53 PM,75.0,55.0,50,30.22,10.0,Calm,Calm,-,N/A,,Scattered Clouds,0,2012-10-04 18:53:00
3:53 PM,75.9,54.0,46,30.21,10.0,Variable,5.8,-,N/A,,Partly Cloudy,0,2012-10-04 19:53:00
4:53 PM,75.0,54.0,48,30.20,10.0,Variable,3.5,-,N/A,,Partly Cloudy,0,2012-10-04 20:53:00
5:53 PM,72.0,55.9,57,30.20,10.0,Calm,Calm,-,N/A,,Partly Cloudy,0,2012-10-04 21:53:00
6:53 PM,69.1,54.0,58,30.20,10.0,Calm,Calm,-,N/A,,Clear,0,2012-10-04 22:53:00
7:53 PM,66.9,54.0,63,30.20,10.0,Calm,Calm,-,N/A,,Clear,0,2012-10-04 23:53:00
8:53 PM,64.9,54.0,68,30.20,10.0,Calm,Calm,-,N/A,,Clear,0,2012-10-05 00:53:00
9:53 PM,64.0,54.0,70,30.20,10.0,Calm,Calm,-,N/A,,Clear,0,2012-10-05 01:53:00
10:53 PM,63.0,55.0,75,30.21,10.0,Calm,Calm,-,N/A,,Clear,0,2012-10-05 02:53:00
11:53 PM,61.0,55.0,81,30.21,10.0,Calm,Calm,-,N/A,,Clear,0,2012-10-05 03:53:00